カタログに戻る

PEGASUS R/B

運用中VLEO
NORAD 27371·ROCKET BODY·🇺🇸 United States

打ち上げ Feb 5, 2002 から Cape Canaveral Space Force Station

Loading…

次のパス (今後24時間)

TLE

最新Source: Space-Track

元期: Sep 14, 2026, 13:52 UTC

1 27371U 02004B   26257.57795986  .00039573  00000-0  38987-3 0  9999
2 27371  38.0134 308.8298 0000790 288.7001  71.3695 15.65029940355545

AllMySatでPEGASUS R/Bをリアルタイム追跡

Download on the App Store